This demonstration page uses our WeatherBlox Daily Observations layout. Learn more.

Hourly Observations for March 2, 2016

Temp ( °F °C ) Dew Point ( °F °C ) Humidity (%) Winds ( mph kmh ) Pressure ( in mb ) Visibility ( mi km ) Precip ( " mm )
12:15 am 00:15 Clear 33 0.6 25 -4 72 72 SSE 8 13 30.12 1020 10 16.0934 0 0
12:35 am 00:35 Partly Cloudy 32 0.1 24 -4.2 73 73 SE 8 13 30.09 1019 10 16.0934 0 0
12:55 am 00:55 Partly Cloudy 32 -0.1 24 -4.5 73 73 SE 7 11 30.09 1019 10 16.0934 0 0
1:15 am 01:15 Partly Cloudy 30 -0.9 24 -4.6 76 76 SSE 8 13 30.12 1020 10 16.0934 0 0
1:35 am 01:35 Mostly Cloudy 30 -1.2 24 -4.6 78 78 SSE 5 7 30.12 1020 10 16.0934 0 0
1:55 am 01:55 Mostly Cloudy 32 -0.1 24 -4.2 74 74 SSE 7 11 30.06 1018 10 16.0934 0 0
2:15 am 02:15 Cloudy 32 0 25 -4 75 75 SSE 8 13 30.06 1018 10 16.0934 0 0
2:35 am 02:35 Cloudy 32 0.1 25 -4 74 74 SSE 8 13 30.06 1018 10 16.0934 0 0
2:55 am 02:55 Cloudy 33 0.4 25 -3.9 73 73 SSE 8 13 30.03 1017 10 16.0934 0 0
3:15 am 03:15 Cloudy 33 0.5 25 -3.7 74 74 SSE 7 11 30.03 1017 10 16.0934 0 0
3:35 am 03:35 Cloudy 33 0.5 25 -3.7 74 74 SE 6 9 30.03 1017 10 16.0934 0 0
3:55 am 03:55 Cloudy 33 0.4 26 -3.6 75 75 SSE 8 13 30 1016 10 16.0934 0 0
4:15 am 04:15 Cloudy 33 0.7 26 -3.5 74 74 SSE 8 13 30 1016 10 16.0934 0 0
4:35 am 04:35 Mostly Cloudy 33 0.8 25 -3.8 72 72 S 10 17 30 1016 10 16.0934 0 0
4:55 am 04:55 Partly Cloudy 33 0.6 25 -3.8 73 73 S 13 20 29.97 1015 10 16.0934 0 0
5:15 am 05:15 Clear 32 0.2 25 -4 74 74 S 13 20 29.97 1015 10 16.0934 0 0
5:35 am 05:35 Clear 32 0 25 -3.8 76 76 S 13 20 29.97 1015 10 16.0934 0 0
5:55 am 05:55 Clear 32 0 25 -3.8 76 76 S 9 15 29.97 1015 10 16.0934 0 0
6:15 am 06:15 Clear 32 0 25 -3.7 76 76 S 8 13 29.94 1014 10 16.0934 0 0
6:35 am 06:35 Clear 32 0 25 -3.7 76 76 S 10 17 29.94 1014 10 16.0934 0 0
6:55 am 06:55 Clear 32 0 25 -4 75 75 SSE 10 17 29.91 1013 10 16.0934 0 0
7:15 am 07:15 Sunny 32 0.1 25 -4 74 74 S 8 13 29.91 1013 10 16.0934 0 0
7:35 am 07:35 Sunny 33 0.5 25 -4.1 72 72 S 8 13 29.88 1012 10 16.0934 0 0
7:55 am 07:55 Sunny 33 0.8 25 -4.1 70 70 S 9 15 29.88 1012 10 16.0934 0 0
8:15 am 08:15 Sunny 34 1 25 -4.1 69 69 S 9 15 29.85 1011 10 16.0934 0 0
8:35 am 08:35 Sunny 35 1.8 25 -4.1 65 65 S 13 20 29.85 1011 10 16.0934 0 0
8:55 am 08:55 Sunny 38 3.1 25 -4.1 60 60 S 13 20 29.85 1011 10 16.0934 0 0
9:15 am 09:15 Sunny 39 3.8 24 -4.7 54 54 SSW 10 17 29.83 1010 10 16.0934 0 0
9:35 am 09:35 Sunny 40 4.7 24 -4.6 51 51 SSW 10 17 29.83 1010 10 16.0934 0 0
9:55 am 09:55 Sunny 42 5.3 24 -4.7 49 49 SSW 14 22 29.83 1010 10 16.0934 0 0
10:15 am 10:15 Sunny 44 6.8 24 -4.6 44 44 SW 10 17 29.83 1010 10 16.0934 0 0
10:35 am 10:35 Sunny 46 7.5 23 -4.9 41 41 SW 8 13 29.8 1009 10 16.0934 0 0
10:55 am 10:55 Sunny 46 8 24 -4.6 41 41 SSW 10 17 29.8 1009 10 16.0934 0 0
11:15 am 11:15 Sunny 49 9.2 25 -4.1 39 39 SSW 8 13 29.77 1008 10 16.0934 0 0
11:35 am 11:35 Sunny 50 10.1 24 -4.3 36 36 SW 7 11 29.77 1008 10 16.0934 0 0
11:55 am 11:55 Sunny 52 11.3 25 -4 34 34 SW 8 13 29.74 1007 10 16.0934 0 0
12:15 pm 12:15 Sunny 54 12.2 25 -4.1 32 32 WSW 6 9 29.74 1007 10 16.0934 0 0
12:35 pm 12:35 Partly Cloudy 55 12.9 25 -4.1 31 31 W 6 9 29.74 1007 10 16.0934 0 0
12:55 pm 12:55 Partly Cloudy 56 13.4 26 -3.6 31 31 WSW 7 11 29.74 1007 10 16.0934 0 0
1:15 pm 13:15 Sunny 58 14.4 26 -3.6 29 29 W 10 17 29.71 1006 10 16.0934 0 0
1:35 pm 13:35 Sunny 58 14.5 25 -4 28 28 W 10 17 29.71 1006 10 16.0934 0 0
1:55 pm 13:55 Mostly Cloudy 58 14.6 26 -3.4 29 29 W 10 17 29.68 1005 10 16.0934 0 0
2:15 pm 14:15 Cloudy 59 15.1 28 -2.5 30 30 W 12 19 29.68 1005 10 16.0934 0 0
2:35 pm 14:35 Mostly Cloudy 60 15.7 30 -1.1 32 32 W 7 11 29.68 1005 10 16.0934 0 0
2:55 pm 14:55 Partly Cloudy 63 17.1 33 0.5 33 33 WNW 8 13 29.62 1003 10 16.0934 0 0
3:15 pm 15:15 Partly Cloudy 63 17.4 34 1 33 33 NW 15 24 29.62 1003 10 16.0934 0 0
3:35 pm 15:35 Mostly Cloudy 61 16.2 36 2.2 39 39 NNW 15 24 29.65 1004 10 16.0934 0 0
3:55 pm 15:55 Mostly Cloudy 61 16.2 34 1.2 36 36 NW 13 20 29.65 1004 10 16.0934 0 0
4:15 pm 16:15 Mostly Cloudy 61 16.2 34 1 36 36 NW 12 19 29.65 1004 10 16.0934 0 0
4:35 pm 16:35 Partly Cloudy 60 15.6 32 0.2 35 35 NW 10 17 29.65 1004 10 16.0934 0 0
4:55 pm 16:55 Sunny 59 15.1 35 1.5 40 40 NW 10 17 29.65 1004 10 16.0934 0 0
5:15 pm 17:15 Sunny 59 14.8 35 1.4 40 40 NW 5 7 29.65 1004 10 16.0934 0 0
5:35 pm 17:35 Sunny 58 14.6 34 1.1 40 40 W 5 7 29.65 1004 10 16.0934 0 0
5:55 pm 17:55 Sunny 59 14.8 35 1.5 41 41 NW 5 7 29.65 1004 10 16.0934 0 0
6:15 pm 18:15 Sunny 56 13.3 34 1.2 44 44 NW 5 7 29.71 1006 10 16.0934 0 0
6:35 pm 18:35 Clear 53 11.9 34 1.2 48 48 Calm 29.71 1006 10 16.0934 0 0
6:55 pm 18:55 Clear 52 11 35 1.5 52 52 W 3 6 29.71 1006 10 16.0934 0 0
7:15 pm 19:15 Clear 50 9.8 34 1 55 55 W 6 9 29.71 1006 10 16.0934 0 0
7:35 pm 19:35 Clear 50 9.8 34 1 55 55 W 5 7 29.77 1008 10 16.0934 0 0
7:55 pm 19:55 Mostly Cloudy 51 10.5 34 1.3 53 53 W 3 6 29.74 1007 10 16.0934 0 0
8:15 pm 20:15 Cloudy 49 9.5 34 0.9 55 55 W 6 9 29.8 1009 10 16.0934 0 0
8:35 pm 20:35 Cloudy 48 8.9 34 1.3 59 59 NW 17 28 29.8 1009 10 16.0934 0 0
8:55 pm 20:55 Cloudy 54 12.2 33 0.6 45 45 NW 23 37 29.77 1008 10 16.0934 0 0
9:15 pm 21:15 Cloudy with Light Rain 50 10.2 39 4 66 66 NNW 16 26 29.8 1009 10 16.0934 0 0
9:35 pm 21:35 Cloudy 50 10.2 39 3.7 64 64 N 10 17 29.8 1009 10 16.0934 0 0
9:55 pm 21:55 Partly Cloudy 48 9.1 39 4 71 71 N 6 9 29.8 1009 10 16.0934 0 0
10:15 pm 22:15 Clear 47 8.2 38 3.5 73 73 N 7 11 29.8 1009 10 16.0934 0 0
10:35 pm 22:35 Clear 47 8.3 38 3.6 73 73 NNW 9 15 29.83 1010 10 16.0934 0 0
10:55 pm 22:55 Clear 46 7.9 38 3.5 74 74 NNW 9 15 29.83 1010 10 16.0934 0 0
11:15 pm 23:15 Clear 46 7.5 38 3.3 75 75 N 17 28 29.91 1013 10 16.0934 0 0
11:35 pm 23:35 Clear 43 5.9 33 0.7 70 70 N 22 35 29.91 1013 10 16.0934 0 0

Powered by AerisWeather